Regional Weather Roundup
Issued by NWS Northern Indiana

Home | Current Version | Previous Version | Text Only | Print | Product List | Glossary On
Versions: 1 2 3 4 5 6 7 8 9 10 11 12 13 14 15 16 17 18 19 20 21 22 23 24 25 26 27 28 29 30 31 32 33 34 35 36 37 38 39 40 41 42 43 44 45 46 47 48 49 50
000
ASUS43 KIWX 202210
RWRIWX

KIWX WEATHER ROUNDUP
NATIONAL WEATHER SERVICE NORTHERN INDIANA
600 PM EDT WED SEP 20 2017

NOTE: "FAIR" INDICATES FEW OR NO CLOUDS BELOW 12,000 FEET WITH NO
SIGNIFICANT WEATHER AND/OR OBSTRUCTIONS TO VISIBILITY.

* THESE STATIONS ARE NOT UNDER NWS QUALITY CONTROL. THEY ALSO MAY NOT
  REPORT WEATHER SUCH AS PRECIPITATION OR FOG.

INZ001>027-202300-
NORTHERN INDIANA

CITY           SKY/WX    TMP DP  RH WIND       PRES   REMARKS
GARY*          SUNNY     90  64  43 S8G22     29.88F
VALPARAISO     SUNNY     90  69  50 S15G21    29.90F
MICHIGAN CITY* SUNNY     88  66  48 S12       29.90F
LAPORTE*       SUNNY     87  69  53 S10       29.92F
KNOX*          SUNNY     88  68  51 S10       29.92S
SOUTH BEND     SUNNY     86  69  56 S15       29.93F
ELKHART*       MOSUNNY   86  68  54 S9        29.93F
GOSHEN         SUNNY     86  67  52 S9        29.94F
MONTICELLO*    MOSUNNY   88  67  50 S9        29.92F
LOGANSPORT*    SUNNY     88  64  45 S6        29.95S
WARSAW*        SUNNY     84  68  58 S3        29.95S
AUBURN*        SUNNY     84  64  51 S5        29.97F
FORT WAYNE     MOSUNNY   85  67  54 S6        29.97F
HUNTINGTON*    SUNNY     86  66  52 S3        29.96F
PERU/GRISSOM   MOSUNNY   87  69  55 S8        29.94F

$$
INZ028>050-202300-
CENTRAL INDIANA

CITY           SKY/WX    TMP DP  RH WIND       PRES   REMARKS
LAFAYETTE      SUNNY     88  68  51 S7        29.92S
KOKOMO*        SUNNY     85  71  63 S6        29.97F
MUNCIE*        SUNNY     88  66  48 SW7       29.98F
INDIANAPOLIS   MOSUNNY   88  67  49 SW7       29.96F

$$
MIZ043>046-050>051-056>058-064>065-071>073-077>080-202300-
SOUTHWEST LOWER MICHIGAN

CITY           SKY/WX    TMP DP  RH WIND       PRES   REMARKS
BATTLE CREEK   SUNNY     86  67  52 S10       29.96S
BENTON HARBOR  SUNNY     87  68  52 VRB5      29.89F
COLDWATER*     SUNNY     83  66  55 S5        29.97R
HILLSDALE*     CLOUDY    81  64  57 CALM      29.98S
HOLLAND        SUNNY     88  66  48 S13       29.91S
GRAND RAPIDS   MOSUNNY   86  66  51 S13       29.91F
KALAMAZOO      SUNNY     86  66  51 S10       29.94F
STURGIS*       SUNNY     84  69  61 SW7       29.95S
THREE RIVERS*  FAIR      86  68  55 S7        29.95S

$$
OHZ001>008-015>018-024>025-202300-
NORTHWEST OHIO

CITY           SKY/WX    TMP DP  RH WIND       PRES   REMARKS
WAUSEON*       FAIR      82  68  61 CALM      29.98S
DEFIANCE       SUNNY     84  66  54 VRB3      29.97S
FINDLAY        CLOUDY    85  62  46 W3        29.98S
TOLEDO EXPRESS SUNNY     83  66  56 VRB3      29.97S
TOLEDO METCALF MOSUNNY   80  70  71 E8        29.98S
LIMA           SUNNY     83  65  54 SW5       29.99F

$$
AND FOR LAKE MICHIGAN COASTAL AND OPEN LAKE BUOY OBSERVATIONS

STATION/POSITION TEMP    WIND        PRES    VSBY  WAVE
                 AIR SEA DIR/SP/G                  HT/PER
                 (F)     (DEG/KT/KT) (MB)    (MI)  (FT/S)
CALUMET HARBOR    89     170/ 13/ 18 1010.6F
MICHIGAN CITY     88     160/ 12/ 14   N/A
BURNS HARBOR      88     190/ 16/ 21 1011.9F
SAINT JOSEPH      89     180/  3/  9 1012.9
SOUTH LAKE BUOY   73 69  120/ 14/ 16 1011.0F         1/ 3
4 MI NW BRIDGMAN  80 70  180/ 10/ 12 1011.6          1
MICHIGAN CITY     81 70  190/ 10/ 12   N/A           1

$$
&&




USA.gov is the U.S. government's official web portal to all federal, state and local government web resources and services.